QPF
0.01 0.02 0.03 0.02 0.02 0.01 0.00 0.00 0.00 0.00 0.00 0.00 0.00 0.00 0.00 0.00 0.00 0.00 0.00 0.00 0.00 0.00 0.00 0.00 0.01 0.01 0.01 0.00 0.00 0.00 0.00 0.00 0.01 0.02 0.02 0.02 0.02 0.03 0.05 0.04 0.02 0.01 0.02
0.00 0.02 0.04 0.03 0.02 0.01 0.01 0.00 0.00 0.00 0.00 0.00 0.00 0.00 0.00 0.00 0.00 0.00 0.00 0.00 0.00 0.00 0.00 0.00 0.01 0.01 0.01 0.00 0.01 0.01 0.01 0.01 0.02 0.04 0.05 0.06 0.05 0.06 0.07 0.02 0.01 0.01 0.02
0.01 0.01 0.03 0.04 0.02 0.01 0.01 0.01 0.00 0.00 0.01 0.00 0.00 0.00 0.00 0.00 0.00 0.00 0.00 0.00 0.00 0.00 0.00 0.00 0.00 0.00 0.00 0.01 0.01 0.01 0.01 0.02 0.03 0.05 0.05 0.03 0.04 0.06 0.05 0.02 0.01 0.02 0.02
0.01 0.01 0.01 0.03 0.03 0.01 0.01 0.01 0.01 0.01 0.01 0.00 0.00 0.00 0.00 0.00 0.00 0.00 0.00 0.00 0.00 0.00 0.00 0.00 0.00 0.00 0.00 0.01 0.01 0.01 0.02 0.03 0.04 0.04 0.01 0.01 0.01 0.03 0.03 0.02 0.01 0.01 0.01
0.02 0.01 0.01 0.02 0.02 0.02 0.01 0.01 0.01 0.00 0.01 0.01 0.01 0.01 0.00 0.01 0.01 0.01 0.00 0.00 0.00 0.00 0.00 0.00 0.00 0.00 0.00 0.00 0.01 0.01 0.03 0.05 0.06 0.03 0.01 0.01 0.02 0.02 0.02 0.02 0.01 0.01 0.01
0.02 0.02 0.02 0.02 0.02 0.02 0.02 0.01 0.01 0.01 0.01 0.01 0.01 0.01 0.00 0.00 0.01 0.01 0.01 0.00 0.00 0.01 0.00 0.00 0.00 0.00 0.00 0.00 0.00 0.01 0.03 0.04 0.03 0.01 0.00 0.01 0.01 0.02 0.01 0.01 0.01 0.01 0.01
0.02 0.02 0.02 0.03 0.02 0.02 0.02 0.02 0.02 0.01 0.01 0.01 0.00 0.01 0.01 0.01 0.01 0.01 0.01 0.01 0.00 0.01 0.01 0.00 0.00 0.00 0.00 0.01 0.01 0.01 0.03 0.04 0.01 0.01 0.00 0.00 0.01 0.02 0.01 0.00 0.00 0.00 0.01
0.02 0.02 0.02 0.03 0.02 0.02 0.01 0.02 0.01 0.01 0.01 0.01 0.01 0.01 0.01 0.01 0.02 0.02 0.02 0.01 0.01 0.01 0.01 0.00 0.00 0.00 0.00 0.01 0.01 0.01 0.02 0.03 0.01 0.01 0.01 0.01 0.02 0.03 0.01 0.01 0.00 0.00 0.00
0.04 0.04 0.02 0.02 0.02 0.02 0.02 0.01 0.01 0.01 0.01 0.01 0.01 0.01 0.01 0.02 0.03 0.03 0.03 0.03 0.02 0.02 0.02 0.01 0.01 0.01 0.00 0.00 0.01 0.01 0.01 0.02 0.02 0.01 0.01 0.01 0.02 0.03 0.03 0.02 0.01 0.00 0.00
0.05 0.05 0.03 0.02 0.02 0.02 0.02 0.02 0.01 0.01 0.01 0.01 0.01 0.02 0.02 0.03 0.03 0.03 0.03 0.03 0.03 0.04 0.03 0.03 0.02 0.02 0.02 0.01 0.01 0.01 0.02 0.02 0.02 0.01 0.01 0.02 0.03 0.04 0.04 0.03 0.01 0.01 0.00
0.03 0.04 0.04 0.03 0.02 0.02 0.01 0.02 0.02 0.02 0.02 0.02 0.02 0.03 0.03 0.02 0.02 0.03 0.03 0.05 0.07 0.06 0.06 0.06 0.06 0.05 0.04 0.03 0.02 0.02 0.02 0.01 0.02 0.02 0.01 0.02 0.04 0.05 0.06 0.04 0.04 0.02 0.01
0.02 0.02 0.04 0.04 0.02 0.02 0.02 0.02 0.02 0.02 0.02 0.02 0.02 0.04 0.03 0.02 0.02 0.04 0.06 0.11 0.12 0.12 0.11 0.09 0.08 0.07 0.07 0.04 0.04 0.04 0.02 0.01 0.01 0.02 0.01 0.02 0.04 0.06 0.08 0.08 0.06 0.05 0.04
0.05 0.04 0.05 0.04 0.03 0.03 0.03 0.03 0.03 0.03 0.03 0.03 0.03 0.05 0.05 0.05 0.05 0.06 0.06 0.06 0.08 0.10 0.09 0.09 0.08 0.06 0.06 0.05 0.05 0.05 0.04 0.03 0.02 0.01 0.01 0.03 0.05 0.07 0.11 0.11 0.09 0.07 0.06
0.15 0.10 0.07 0.06 0.06 0.06 0.07 0.06 0.05 0.05 0.05 0.05 0.05 0.07 0.07 0.08 0.06 0.06 0.05 0.05 0.05 0.05 0.05 0.05 0.05 0.04 0.07 0.07 0.05 0.05 0.04 0.04 0.02 0.02 0.02 0.03 0.05 0.07 0.12 0.14 0.12 0.10 0.08
0.23 0.24 0.16 0.10 0.10 0.11 0.10 0.08 0.07 0.07 0.07 0.07 0.08 0.07 0.06 0.07 0.06 0.05 0.05 0.06 0.06 0.05 0.04 0.05 0.04 0.03 0.03 0.03 0.03 0.03 0.04 0.03 0.03 0.02 0.02 0.04 0.06 0.07 0.10 0.14 0.14 0.13 0.13
0.28 0.30 0.21 0.16 0.15 0.14 0.13 0.11 0.08 0.08 0.07 0.07 0.07 0.06 0.05 0.05 0.06 0.07 0.06 0.05 0.04 0.04 0.03 0.03 0.03 0.02 0.02 0.02 0.02 0.02 0.02 0.01 0.02 0.02 0.02 0.03 0.07 0.09 0.10 0.12 0.15 0.16 0.17
0.38 0.31 0.22 0.22 0.17 0.14 0.13 0.10 0.07 0.06 0.06 0.05 0.03 0.04 0.04 0.03 0.04 0.04 0.05 0.04 0.03 0.01 0.02 0.02 0.02 0.02 0.02 0.02 0.03 0.02 0.02 0.02 0.01 0.02 0.02 0.02 0.03 0.08 0.10 0.10 0.12 0.14 0.17
0.44 0.32 0.23 0.19 0.17 0.13 0.12 0.08 0.05 0.04 0.03 0.03 0.03 0.03 0.02 0.02 0.02 0.02 0.02 0.01 0.01 0.01 0.01 0.01 0.02 0.01 0.01 0.01 0.02 0.03 0.02 0.03 0.04 0.04 0.03 0.04 0.03 0.03 0.07 0.10 0.12 0.12 0.14
0.40 0.31 0.21 0.18 0.16 0.13 0.09 0.05 0.04 0.03 0.02 0.02 0.03 0.02 0.02 0.02 0.01 0.01 0.01 0.00 0.01 0.01 0.01 0.02 0.02 0.01 0.02 0.01 0.01 0.01 0.01 0.02 0.03 0.03 0.03 0.02 0.03 0.03 0.04 0.05 0.10 0.12 0.13
0.27 0.22 0.16 0.13 0.12 0.09 0.06 0.04 0.02 0.01 0.01 0.01 0.01 0.01 0.01 0.01 0.01 0.00 0.00 0.00 0.00 0.01 0.01 0.01 0.01 0.02 0.01 0.01 0.01 0.01 0.01 0.01 0.01 0.02 0.02 0.02 0.03 0.02 0.03 0.02 0.04 0.06 0.12
0.16 0.14 0.13 0.11 0.08 0.05 0.03 0.02 0.01 0.00 0.00 0.00 0.00 0.00 0.00 0.00 0.00 0.00 0.00 0.00 0.00 0.00 0.00 0.00 0.01 0.02 0.01 0.01 0.01 0.01 0.00 0.01 0.01 0.01 0.01 0.01 0.02 0.02 0.02 0.02 0.02 0.03 0.06
0.12 0.12 0.10 0.09 0.06 0.03 0.02 0.01 0.01 0.01 0.00 0.00 0.00 0.00 0.00 0.00 0.00 0.00 0.00 0.00 0.00 0.00 0.00 0.00 0.00 0.00 0.00 0.00 0.00 0.01 0.01 0.01 0.00 0.01 0.01 0.01 0.02 0.02 0.02 0.02 0.01 0.02 0.03
0.09 0.09 0.07 0.05 0.03 0.01 0.01 0.01 0.01 0.00 0.00 0.00 0.00 0.00 0.00 0.00 0.00 0.00 0.00 0.00 0.00 0.00 0.00 0.00 0.00 0.00 0.00 0.00 0.00 0.00 0.00 0.01 0.00 0.00 0.00 0.01 0.02 0.02 0.02 0.02 0.02 0.02 0.03
0.07 0.06 0.04 0.03 0.01 0.01 0.01 0.01 0.00 0.00 0.00 0.00 0.00 0.00 0.00 0.00 0.00 0.00 0.00 0.00 0.00 0.00 0.00 0.00 0.00 0.00 0.00 0.00 0.00 0.00 0.00 0.00 0.00 0.00 0.00 0.00 0.01 0.01 0.01 0.02 0.01 0.02 0.02
0.05 0.04 0.03 0.02 0.01 0.00 0.00 0.00 0.00 0.00 0.00 0.00 0.00 0.00 0.00 0.00 0.00 0.00 0.00 0.00 0.00 0.00 0.00 0.00 0.00 0.00 0.00 0.00 0.00 0.00 0.00 0.00 0.00 0.00 0.00 0.00 0.00 0.00 0.00 0.01 0.01 0.01 0.01
0.03 0.03 0.02 0.01 0.01 0.00 0.00 0.00 0.00 0.00 0.00 0.00 0.00 0.00 0.00 0.00 0.00 0.00 0.00 0.00 0.00 0.00 0.00 0.00 0.00 0.00 0.00 0.00 0.00 0.00 0.00 0.00 0.00 0.00 0.00 0.00 0.00 0.00 0.00 0.00 0.00 0.00 0.00
MSLP
1013.32 1013.16 1013.11 1013.19 1013.36 1013.60 1013.85 1014.07 1014.25 1014.37 1014.45 1014.51 1014.60 1014.74 1014.94 1015.20 1015.50 1015.79 1016.04 1016.24 1016.36 1016.42 1016.44 1016.42 1016.41 1016.42 1016.45 1016.50 1016.56 1016.63 1016.68 1016.73 1016.78 1016.84 1016.92 1017.01 1017.13 1017.28 1017.43 1017.59 1017.76 1017.92 1018.10
1013.21 1013.14 1013.18 1013.33 1013.54 1013.80 1014.06 1014.28 1014.46 1014.59 1014.69 1014.79 1014.91 1015.09 1015.31 1015.58 1015.86 1016.14 1016.36 1016.54 1016.64 1016.70 1016.72 1016.72 1016.72 1016.74 1016.77 1016.80 1016.84 1016.88 1016.91 1016.94 1016.99 1017.05 1017.14 1017.26 1017.40 1017.55 1017.70 1017.86 1018.02 1018.18 1018.35
1013.04 1013.05 1013.17 1013.37 1013.63 1013.92 1014.20 1014.45 1014.65 1014.82 1014.96 1015.11 1015.28 1015.49 1015.72 1015.97 1016.22 1016.45 1016.63 1016.76 1016.84 1016.89 1016.91 1016.94 1016.96 1016.99 1017.02 1017.05 1017.07 1017.09 1017.10 1017.13 1017.18 1017.26 1017.38 1017.52 1017.67 1017.83 1017.99 1018.14 1018.29 1018.44 1018.61
1012.86 1012.96 1013.13 1013.39 1013.69 1014.00 1014.31 1014.59 1014.83 1015.04 1015.24 1015.44 1015.65 1015.88 1016.11 1016.34 1016.54 1016.70 1016.82 1016.91 1016.96 1017.01 1017.05 1017.10 1017.15 1017.20 1017.24 1017.27 1017.28 1017.28 1017.29 1017.31 1017.38 1017.48 1017.62 1017.79 1017.96 1018.13 1018.28 1018.42 1018.56 1018.70 1018.86
1012.75 1012.91 1013.15 1013.44 1013.76 1014.10 1014.41 1014.71 1014.98 1015.23 1015.48 1015.72 1015.97 1016.21 1016.44 1016.63 1016.79 1016.90 1016.97 1017.02 1017.06 1017.11 1017.18 1017.26 1017.34 1017.42 1017.47 1017.49 1017.49 1017.47 1017.47 1017.50 1017.57 1017.70 1017.87 1018.06 1018.25 1018.42 1018.57 1018.70 1018.81 1018.94 1019.10
1012.77 1012.99 1013.25 1013.56 1013.90 1014.23 1014.54 1014.83 1015.11 1015.38 1015.65 1015.92 1016.19 1016.45 1016.67 1016.84 1016.97 1017.04 1017.09 1017.12 1017.16 1017.23 1017.33 1017.45 1017.57 1017.67 1017.73 1017.75 1017.73 1017.70 1017.68 1017.70 1017.78 1017.92 1018.11 1018.32 1018.52 1018.69 1018.83 1018.94 1019.04 1019.15 1019.31
1012.93 1013.17 1013.47 1013.78 1014.10 1014.41 1014.69 1014.96 1015.21 1015.47 1015.74 1016.03 1016.31 1016.58 1016.80 1016.98 1017.09 1017.15 1017.19 1017.24 1017.30 1017.41 1017.55 1017.70 1017.86 1017.97 1018.04 1018.04 1018.00 1017.95 1017.91 1017.92 1018.00 1018.14 1018.34 1018.55 1018.75 1018.92 1019.04 1019.14 1019.22 1019.32 1019.47
1013.17 1013.45 1013.76 1014.08 1014.38 1014.64 1014.88 1015.09 1015.30 1015.53 1015.78 1016.06 1016.35 1016.62 1016.86 1017.04 1017.17 1017.25 1017.30 1017.37 1017.47 1017.61 1017.79 1017.99 1018.17 1018.30 1018.37 1018.36 1018.29 1018.21 1018.15 1018.14 1018.20 1018.34 1018.53 1018.74 1018.93 1019.09 1019.20 1019.28 1019.34 1019.43 1019.58
1013.45 1013.75 1014.08 1014.40 1014.68 1014.91 1015.09 1015.24 1015.39 1015.57 1015.78 1016.04 1016.33 1016.62 1016.87 1017.07 1017.22 1017.33 1017.41 1017.51 1017.64 1017.81 1018.03 1018.25 1018.45 1018.60 1018.66 1018.64 1018.56 1018.46 1018.37 1018.33 1018.37 1018.49 1018.67 1018.87 1019.06 1019.21 1019.31 1019.37 1019.42 1019.50 1019.63
1013.67 1014.01 1014.36 1014.69 1014.96 1015.16 1015.29 1015.39 1015.48 1015.61 1015.79 1016.03 1016.31 1016.60 1016.87 1017.10 1017.27 1017.40 1017.50 1017.62 1017.77 1017.96 1018.19 1018.43 1018.65 1018.80 1018.87 1018.85 1018.76 1018.64 1018.54 1018.48 1018.51 1018.61 1018.77 1018.96 1019.14 1019.28 1019.37 1019.42 1019.47 1019.54 1019.67
1013.77 1014.15 1014.55 1014.91 1015.19 1015.38 1015.48 1015.54 1015.59 1015.67 1015.82 1016.04 1016.31 1016.61 1016.89 1017.13 1017.32 1017.46 1017.57 1017.69 1017.84 1018.03 1018.26 1018.50 1018.72 1018.88 1018.96 1018.95 1018.87 1018.76 1018.65 1018.59 1018.59 1018.68 1018.83 1019.00 1019.17 1019.31 1019.41 1019.47 1019.51 1019.58 1019.70
1013.73 1014.17 1014.62 1015.02 1015.33 1015.53 1015.64 1015.68 1015.70 1015.76 1015.89 1016.10 1016.36 1016.66 1016.95 1017.19 1017.38 1017.52 1017.62 1017.72 1017.85 1018.02 1018.23 1018.45 1018.67 1018.84 1018.94 1018.95 1018.90 1018.80 1018.70 1018.64 1018.65 1018.72 1018.85 1019.02 1019.18 1019.33 1019.43 1019.50 1019.56 1019.63 1019.74
1013.57 1014.06 1014.57 1015.02 1015.37 1015.61 1015.73 1015.78 1015.81 1015.87 1015.99 1016.19 1016.45 1016.75 1017.04 1017.28 1017.47 1017.59 1017.67 1017.74 1017.83 1017.95 1018.13 1018.33 1018.54 1018.72 1018.84 1018.88 1018.86 1018.80 1018.73 1018.67 1018.67 1018.74 1018.86 1019.01 1019.17 1019.32 1019.44 1019.53 1019.61 1019.69 1019.80
1013.36 1013.88 1014.43 1014.93 1015.33 1015.60 1015.76 1015.84 1015.89 1015.97 1016.10 1016.30 1016.57 1016.86 1017.15 1017.40 1017.57 1017.68 1017.74 1017.77 1017.82 1017.91 1018.04 1018.22 1018.41 1018.59 1018.73 1018.81 1018.82 1018.79 1018.74 1018.70 1018.70 1018.75 1018.85 1018.99 1019.14 1019.29 1019.43 1019.53 1019.63 1019.72 1019.84
1013.15 1013.69 1014.26 1014.79 1015.22 1015.54 1015.74 1015.86 1015.95 1016.05 1016.20 1016.42 1016.69 1016.99 1017.28 1017.52 1017.70 1017.80 1017.85 1017.86 1017.88 1017.94 1018.04 1018.18 1018.36 1018.54 1018.68 1018.79 1018.83 1018.83 1018.80 1018.76 1018.74 1018.76 1018.83 1018.94 1019.07 1019.21 1019.35 1019.47 1019.59 1019.70 1019.81
1013.03 1013.55 1014.11 1014.64 1015.09 1015.44 1015.68 1015.85 1015.98 1016.12 1016.29 1016.52 1016.80 1017.10 1017.39 1017.65 1017.84 1017.96 1018.01 1018.04 1018.05 1018.09 1018.17 1018.29 1018.45 1018.61 1018.76 1018.87 1018.93 1018.94 1018.91 1018.85 1018.81 1018.79 1018.80 1018.86 1018.95 1019.06 1019.19 1019.31 1019.44 1019.55 1019.68
1013.02 1013.49 1014.01 1014.52 1014.97 1015.34 1015.62 1015.83 1016.01 1016.18 1016.38 1016.61 1016.89 1017.20 1017.50 1017.77 1017.98 1018.14 1018.23 1018.28 1018.32 1018.37 1018.45 1018.55 1018.69 1018.84 1018.97 1019.07 1019.13 1019.12 1019.08 1018.99 1018.90 1018.82 1018.77 1018.76 1018.78 1018.85 1018.94 1019.04 1019.16 1019.28 1019.40
1013.13 1013.53 1013.98 1014.45 1014.89 1015.27 1015.59 1015.84 1016.06 1016.27 1016.48 1016.72 1016.99 1017.29 1017.59 1017.87 1018.12 1018.32 1018.47 1018.58 1018.67 1018.74 1018.83 1018.93 1019.05 1019.18 1019.29 1019.37 1019.40 1019.37 1019.30 1019.17 1019.03 1018.88 1018.75 1018.65 1018.59 1018.58 1018.61 1018.67 1018.76 1018.87 1018.99
1013.32 1013.63 1014.02 1014.43 1014.86 1015.25 1015.60 1015.91 1016.17 1016.40 1016.63 1016.86 1017.11 1017.38 1017.67 1017.96 1018.24 1018.49 1018.71 1018.88 1019.02 1019.15 1019.26 1019.36 1019.47 1019.57 1019.65 1019.70 1019.71 1019.66 1019.55 1019.39 1019.19 1018.97 1018.76 1018.57 1018.42 1018.32 1018.27 1018.27 1018.30 1018.38 1018.47
1013.55 1013.78 1014.09 1014.47 1014.88 1015.29 1015.69 1016.04 1016.35 1016.61 1016.83 1017.04 1017.26 1017.50 1017.76 1018.04 1018.33 1018.62 1018.90 1019.14 1019.34 1019.51 1019.65 1019.77 1019.86 1019.94 1020.00 1020.03 1020.02 1019.95 1019.83 1019.64 1019.40 1019.13 1018.84 1018.57 1018.32 1018.12 1017.98 1017.89 1017.86 1017.88 1017.94
1013.77 1013.93 1014.19 1014.53 1014.94 1015.38 1015.82 1016.23 1016.59 1016.87 1017.10 1017.29 1017.46 1017.64 1017.86 1018.11 1018.40 1018.72 1019.03 1019.32 1019.58 1019.79 1019.95 1020.08 1020.17 1020.24 1020.29 1020.30 1020.29 1020.22 1020.10 1019.92 1019.67 1019.36 1019.02 1018.68 1018.35 1018.05 1017.81 1017.63 1017.52 1017.46 1017.46
1013.94 1014.06 1014.28 1014.61 1015.02 1015.49 1015.99 1016.45 1016.85 1017.17 1017.40 1017.56 1017.69 1017.82 1017.98 1018.19 1018.46 1018.77 1019.10 1019.42 1019.72 1019.96 1020.14 1020.28 1020.37 1020.43 1020.48 1020.50 1020.50 1020.46 1020.37 1020.21 1019.98 1019.68 1019.32 1018.93 1018.53 1018.15 1017.82 1017.54 1017.33 1017.20 1017.13
1014.06 1014.16 1014.35 1014.67 1015.09 1015.60 1016.13 1016.65 1017.10 1017.45 1017.69 1017.83 1017.92 1018.00 1018.11 1018.27 1018.51 1018.80 1019.13 1019.47 1019.77 1020.03 1020.22 1020.36 1020.46 1020.52 1020.57 1020.62 1020.65 1020.66 1020.62 1020.51 1020.33 1020.05 1019.70 1019.30 1018.86 1018.42 1018.01 1017.65 1017.35 1017.12 1016.97
1014.14 1014.23 1014.40 1014.71 1015.13 1015.65 1016.22 1016.78 1017.27 1017.65 1017.91 1018.05 1018.12 1018.17 1018.24 1018.36 1018.56 1018.83 1019.15 1019.48 1019.78 1020.04 1020.23 1020.37 1020.46 1020.53 1020.60 1020.67 1020.74 1020.80 1020.82 1020.79 1020.66 1020.44 1020.13 1019.73 1019.28 1018.81 1018.34 1017.91 1017.53 1017.23 1017.00
1014.20 1014.28 1014.44 1014.72 1015.13 1015.65 1016.23 1016.81 1017.33 1017.74 1018.02 1018.18 1018.25 1018.29 1018.34 1018.44 1018.62 1018.87 1019.17 1019.49 1019.78 1020.03 1020.21 1020.34 1020.43 1020.50 1020.57 1020.67 1020.77 1020.88 1020.97 1021.00 1020.94 1020.79 1020.52 1020.16 1019.72 1019.23 1018.74 1018.26 1017.83 1017.45 1017.15
1014.24 1014.32 1014.45 1014.70 1015.08 1015.57 1016.14 1016.72 1017.25 1017.69 1018.00 1018.18 1018.28 1018.34 1018.40 1018.51 1018.69 1018.93 1019.22 1019.52 1019.80 1020.03 1020.20 1020.31 1020.38 1020.45 1020.52 1020.62 1020.75 1020.89 1021.02 1021.10 1021.11 1021.01 1020.79 1020.48 1020.07 1019.60 1019.10 1018.61 1018.14 1017.72 1017.36
Thickness
5783 5784 5782 5780 5779 5778 5776 5775 5774 5773 5772 5771 5770 5768 5767 5766 5765 5763 5762 5761 5761 5760 5759 5758 5757 5756 5756 5755 5754 5753 5752 5752 5751 5750 5749 5748 5747 5746 5745 5744 5743 5742 5741
5789 5785 5782 5779 5778 5776 5775 5773 5772 5770 5769 5768 5767 5766 5765 5764 5762 5761 5760 5759 5758 5757 5757 5756 5755 5754 5753 5753 5752 5751 5750 5750 5749 5748 5747 5746 5745 5744 5743 5742 5741 5740 5739
5789 5785 5782 5779 5777 5775 5773 5771 5769 5768 5767 5766 5765 5763 5762 5761 5760 5759 5758 5757 5756 5755 5754 5753 5752 5752 5751 5750 5750 5749 5748 5747 5747 5746 5745 5744 5743 5742 5741 5741 5740 5739 5737
5787 5783 5780 5778 5775 5773 5771 5769 5767 5766 5764 5763 5762 5760 5759 5758 5757 5756 5755 5754 5753 5752 5751 5750 5750 5749 5748 5748 5747 5747 5746 5745 5744 5744 5743 5742 5741 5740 5740 5739 5738 5737 5736
5784 5781 5779 5776 5774 5771 5769 5766 5765 5763 5762 5761 5759 5757 5756 5755 5754 5753 5752 5751 5750 5749 5748 5747 5746 5746 5745 5745 5745 5744 5744 5743 5742 5741 5740 5740 5739 5738 5738 5737 5736 5735 5734
5781 5778 5776 5774 5771 5769 5766 5764 5763 5761 5760 5758 5756 5755 5754 5753 5751 5750 5749 5747 5746 5745 5744 5744 5743 5743 5742 5742 5742 5742 5742 5742 5741 5739 5738 5738 5737 5736 5736 5735 5734 5733 5732
5777 5775 5774 5771 5769 5767 5764 5762 5761 5759 5758 5756 5754 5753 5751 5750 5749 5747 5746 5744 5743 5742 5741 5740 5740 5739 5739 5739 5739 5739 5739 5739 5738 5738 5736 5735 5735 5734 5733 5733 5732 5731 5730
5774 5772 5771 5768 5766 5764 5762 5761 5759 5757 5755 5754 5752 5750 5749 5747 5746 5744 5743 5741 5740 5739 5738 5737 5736 5736 5736 5736 5736 5736 5736 5736 5736 5735 5734 5733 5733 5732 5731 5731 5730 5729 5728
5771 5769 5768 5765 5763 5762 5760 5759 5757 5755 5754 5752 5750 5748 5746 5745 5743 5741 5740 5738 5737 5736 5734 5733 5733 5733 5732 5732 5733 5733 5733 5733 5733 5733 5732 5731 5731 5730 5729 5729 5728 5727 5727
5766 5765 5764 5762 5760 5759 5758 5756 5755 5753 5751 5749 5747 5745 5743 5742 5740 5739 5737 5735 5734 5732 5731 5730 5730 5729 5729 5729 5729 5730 5730 5730 5730 5729 5729 5729 5728 5728 5727 5727 5726 5726 5725
5761 5761 5760 5759 5757 5756 5755 5753 5751 5750 5748 5746 5744 5742 5740 5739 5737 5736 5734 5733 5731 5730 5728 5727 5726 5726 5726 5726 5726 5726 5726 5727 5726 5727 5727 5727 5726 5726 5725 5725 5724 5724 5724
5756 5757 5757 5755 5753 5752 5751 5750 5748 5747 5745 5743 5741 5739 5737 5735 5734 5732 5731 5730 5728 5727 5726 5725 5724 5722 5722 5722 5722 5723 5723 5723 5723 5724 5724 5725 5724 5724 5724 5723 5722 5722 5721
5753 5754 5754 5752 5750 5749 5748 5746 5745 5743 5741 5739 5737 5735 5733 5731 5730 5729 5727 5726 5725 5724 5723 5722 5721 5719 5719 5719 5719 5719 5719 5719 5720 5720 5721 5722 5722 5722 5722 5721 5721 5720 5719
5748 5749 5750 5749 5748 5746 5745 5743 5742 5739 5737 5736 5734 5732 5730 5728 5726 5725 5724 5722 5722 5721 5720 5718 5717 5716 5716 5716 5716 5716 5716 5716 5716 5717 5718 5719 5720 5720 5720 5719 5719 5718 5717
5745 5746 5746 5746 5745 5744 5742 5740 5739 5737 5735 5733 5730 5728 5727 5725 5723 5721 5720 5718 5718 5717 5716 5715 5714 5714 5713 5713 5713 5713 5713 5713 5713 5714 5715 5716 5717 5717 5717 5717 5716 5716 5715
5743 5743 5743 5742 5742 5742 5739 5737 5736 5734 5732 5730 5727 5725 5724 5722 5720 5718 5717 5715 5715 5714 5713 5712 5711 5711 5710 5710 5710 5710 5710 5710 5710 5711 5712 5713 5714 5715 5715 5715 5714 5714 5714
5740 5741 5740 5740 5740 5738 5737 5734 5732 5731 5729 5727 5725 5723 5721 5719 5717 5715 5714 5713 5712 5711 5710 5709 5708 5707 5707 5706 5706 5707 5707 5707 5708 5708 5709 5710 5711 5712 5713 5713 5713 5713 5712
5738 5738 5738 5738 5736 5735 5734 5732 5729 5728 5727 5724 5722 5720 5718 5716 5714 5713 5711 5710 5709 5708 5707 5706 5704 5702 5702 5701 5702 5703 5703 5704 5704 5705 5706 5707 5708 5709 5710 5711 5711 5711 5710
5736 5735 5735 5735 5734 5732 5730 5728 5726 5725 5723 5721 5719 5717 5715 5713 5712 5710 5709 5707 5707 5705 5704 5703 5700 5698 5697 5697 5698 5699 5699 5700 5701 5702 5703 5704 5705 5706 5707 5708 5708 5709 5709
5734 5734 5733 5731 5731 5730 5727 5725 5723 5722 5720 5718 5716 5715 5712 5711 5709 5708 5706 5705 5704 5702 5700 5698 5696 5694 5693 5692 5694 5695 5695 5696 5697 5699 5700 5700 5702 5703 5704 5704 5705 5706 5707
5731 5731 5730 5729 5729 5728 5725 5722 5720 5717 5717 5715 5713 5711 5710 5708 5707 5706 5704 5702 5701 5698 5696 5695 5693 5690 5689 5688 5688 5688 5690 5692 5693 5694 5695 5696 5697 5698 5699 5700 5701 5702 5704
5729 5729 5729 5729 5728 5727 5725 5723 5720 5717 5715 5713 5711 5709 5708 5706 5705 5704 5702 5700 5698 5696 5693 5692 5690 5687 5685 5684 5682 5681 5679 5682 5686 5688 5689 5690 5691 5693 5694 5695 5697 5698 5700
5728 5729 5730 5728 5727 5725 5724 5721 5718 5714 5712 5709 5708 5707 5706 5705 5703 5702 5700 5698 5695 5693 5691 5689 5687 5684 5681 5680 5679 5677 5673 5672 5675 5680 5682 5683 5684 5686 5687 5689 5691 5693 5695
5729 5729 5728 5726 5725 5724 5722 5720 5717 5713 5709 5708 5707 5706 5704 5703 5702 5700 5698 5696 5693 5691 5689 5687 5685 5682 5679 5676 5675 5673 5672 5671 5668 5669 5674 5676 5678 5679 5680 5683 5685 5687 5689
5730 5729 5727 5725 5723 5722 5721 5720 5717 5712 5709 5707 5705 5704 5703 5701 5700 5699 5696 5694 5691 5689 5687 5684 5682 5679 5677 5674 5672 5670 5668 5665 5664 5663 5663 5667 5670 5672 5674 5675 5677 5679 5682
5730 5728 5727 5724 5722 5722 5720 5719 5716 5712 5708 5705 5704 5702 5700 5699 5698 5697 5695 5692 5690 5687 5685 5682 5680 5677 5674 5672 5669 5667 5665 5662 5660 5658 5657 5658 5659 5664 5667 5669 5670 5672 5674